#timestamp,LO_Frequency,Hit,StdDev 
1541696415.5,286046999.9,N
1541696435.3,286046999.8,N
1541696455.1,286047001.0,N
1541696475.9,286047000.5,N
1541696495.1,286047001.0,N
1541696515.8,286046999.7,N
1541696535.7,286047001.1,N
1541696555.5,286046998.5,N
1541696575.4,286046998.5,N
1541696595.2,286046998.2,N
1541696615.0,286046998.5,N
1541696615.9,286046998.5,N
1541696635.8,286047000.9,N
1541696655.6,286047001.1,N
1541696675.5,286047000.8,N
1541696695.3,286046998.5,N
1541696715.1,286046999.3,N
1541696735.9,286046998.9,N
1541696755.7,286047000.8,N
1541696775.5,286046998.3,N
1541696795.4,286046998.7,N
1541696815.2,286046998.1,N
1541696835.1,286046998.5,N
1541696836.0,286046998.5,N
1541696855.8,286047000.6,N
1541696875.6,286047001.0,N
1541696895.5,286047000.2,N
1541696915.3,286047000.5,N
1541696935.1,286047000.0,N
1541696955.9,286047001.1,N
1541696975.7,286046998.3,N
1541696995.6,286046998.7,N
1541697015.4,286046999.3,N
1541697035.2,286046998.4,N
1541697055.1,286046998.4,N
1541697056.0,286046998.4,N
1541697075.8,286047000.7,N
1541697095.6,286047001.0,N
1541697115.5,286046998.6,N
1541697135.3,286046998.6,N
1541697155.2,286047001.0,N
1541697175.9,286046998.6,N
1541697195.7,286046998.5,N
1541697215.6,286047000.2,N
1541697235.4,286047000.5,N
1541697255.2,286047000.0,N
1541697275.1,286046999.8,N
1541697276.0,286046999.8,N
1541697295.8,286047000.0,N
1541697315.7,286047000.3,N
1541697335.5,286047002.5,N
1541697355.3,286047000.2,N
1541697375.2,286046999.9,N
1541697395.0,286047000.8,N
1541697395.9,286047000.8,N
1541697415.8,286046998.2,N
1541697435.6,286046998.8,N
1541697455.4,286046999.3,N
1541697475.3,286047001.1,N
1541697495.1,286047000.5,N
1541697496.0,286047000.5,N
1541697515.8,286047000.5,N
1541697535.7,286047000.8,N
1541697555.5,286047000.4,N
1541697575.4,286047000.0,N
1541697595.2,286047002.6,N
1541697615.0,286047000.4,N
1541697615.9,286047000.4,N
1541697635.8,286047002.8,N
1541697655.6,286047000.9,N
1541697675.4,286046999.9,N
1541697695.3,286047000.5,N
1541697715.5,286047000.7,N
1541697735.3,286047000.7,N
1541697755.2,286047001.0,N
1541697775.0,286047000.9,N
1541697775.9,286047000.9,N
1541697795.8,286047002.4,N
1541697815.6,286047002.8,N
1541697835.4,286047002.7,N
1541697855.3,286046999.8,N
1541697875.1,286047000.4,N
1541697895.9,286047002.8,N
1541697915.7,286047000.4,N
1541697935.5,286046999.8,N
1541697955.4,286046999.8,N
1541697975.2,286046999.9,N
1541697995.0,286047001.0,N
1541697995.9,286047001.0,N
1541698015.8,286047001.2,N
1541698035.6,286047000.8,N
1541698055.5,286046998.7,N
1541698075.3,286046998.7,N
1541698095.1,286046998.2,N
1541698115.9,286046998.2,N
1541698135.7,286046998.1,N
1541698155.6,286047000.8,N
1541698175.4,286047001.0,N
1541698195.2,286047000.9,N
1541698215.1,286046998.5,N
1541698216.0,286046998.5,N
1541698235.8,286046999.9,N
1541698255.6,286047000.5,N
1541698275.5,286047000.4,N
1541698295.3,286047000.7,N
1541698315.2,286047000.4,N
1541698335.9,286047000.2,N
1541698355.7,286047002.7,N
1541698375.6,286047002.3,N
1541698395.4,286047000.0,N
1541698415.2,286047000.6,N
1541698435.1,286046999.9,N
1541698436.0,286046999.9,N
1541698455.8,286046999.9,N
1541698475.7,286047000.0,N
1541698495.5,286047000.2,N
1541698515.3,286047000.5,N
1541698535.2,286047001.0,N
1541698555.0,286047001.0,N
1541698575.1,286047000.8,N
1541698576.0,286047000.8,N
1541698595.8,286047000.6,N
1541698615.7,286047000.6,N
1541698635.5,286046999.8,N
1541698655.5,286047000.1,N
1541698675.3,286047003.7,Y
1541698695.2,286047001.7,P
1541698715.9,286047001.8,N
1541698735.7,286047002.8,P
1541698755.6,286047002.2,N
1541698775.4,286047002.6,Y
1541698795.3,286046998.6,P
1541698815.1,286046998.5,N
1541698835.8,286046998.5,N
1541698855.7,286046998.5,N
1541698875.5,286046998.3,N
1541698895.4,286046998.6,N
1541698915.2,286047001.2,N
1541698935.0,286046998.1,N
1541698935.9,286046998.1,N
1541698955.8,286046998.5,N
1541698975.6,286046999.9,N
1541698995.5,286047001.1,N
1541699015.3,286047002.7,N
1541699035.1,286047000.3,N
1541699055.9,286046999.7,N
1541699075.7,286047000.3,N
1541699095.5,286047000.4,N
1541699115.4,286047000.9,N
1541699135.2,286047000.5,N
1541699155.1,286047000.1,N
1541699156.0,286047000.1,N
1541699175.8,286047000.3,N
1541699195.6,286047000.1,N
1541699215.5,286047000.3,N
1541699235.3,286046999.9,N
1541699255.2,286047000.0,N
1541699275.9,286047001.0,N
1541699295.7,286047000.5,N
1541699315.6,286047000.6,N
1541699335.4,286047001.2,N
1541699355.3,286046998.4,N
1541699375.1,286046998.6,N
1541699376.0,286046998.6,N
1541699395.8,286046998.4,N
1541699415.7,286046998.7,N
1541699435.5,286046998.2,N
1541699455.4,286046998.4,N
1541699475.2,286047000.8,N
1541699495.0,286046998.3,N
1541699495.9,286046998.3,N
1541699515.8,286047001.1,N
1541699535.6,286046998.3,N
1541699555.5,286046998.6,N
1541699575.3,286047001.1,N
1541699595.1,286047001.0,N
1541699615.9,286046998.1,N
1541699635.7,286046998.6,N
1541699655.6,286047000.6,N
1541699675.4,286046998.6,N
1541699695.2,286046999.0,N
1541699715.1,286046999.6,N
1541699716.0,286046999.6,N
1541699735.8,286047001.1,N
1541699755.6,286046998.2,N
1541699775.5,286047000.8,N
1541699795.3,286047001.2,N
1541699815.2,286046998.4,N
1541699835.0,286046999.0,N
1541699835.9,286046999.0,N
1541699855.7,286046998.3,N
1541699875.6,286046997.1,N
1541699895.4,286046995.8,Y
1541699915.3,286046995.3,P
1541699935.1,286046994.9,N
1541699955.8,286046995.0,N
1541699975.7,286046995.2,N
1541699995.5,286046995.6,N
